Baku airport (UBBB)

baku-airport

Baku International Airport

Heydar Aliyev International Airport is the main international airport in Azerbaijan located 20 km (12 mi) northeast of the capital Baku. The airport is the home of Azerbaijan Airlines, the national flag carrier. It is the busiest airport in Azerbaijan and of the Caucasus.

ICAO: UBBB, IATA: GYD

Charts: Jeppesen

Sceneries: freeware demos w. reduced resolution

 fs9     fsx     Prepar

payware: http://www.drzewiecki-design.net/

METAR:

UBBB 071500Z 36014KT 9999 SCT060CB 28/21 Q1007 NOSIG

TAF UBBB 071115Z 0712/0812 34016KT 9999 FEW050CB TX29/0712Z TN21/0801Z TEMPO 0712/0716 SCT012 SCT040CB TEMPO 0716/0724 36020G30KT PROB40 TEMPO 0716/0724 -TSRA TEMPO 0800/0806 -SHRA SCT040CB